• In Uzbekistan
  • List of Countries
  • For 7 days
  • Water Temperature
  • Satellite Maps
  • Weather Map
  • Weather Widgets
  • user-avatar
    Login

    Hourly Weather Ondjiwa

    Today, 18 January, Wednesday

    Time Temperature Precipitation Wind Pressure Humidity
    00:00 +24°C° 0.2 mm 2 mps 665 mmHg 78%
    01:00 +23°C° 0 mm 1 mps 665 mmHg 81%
    02:00 +23°C° 0.2 mm 1 mps 665 mmHg 83%
    03:00 +23°C° 0.2 mm 1 mps 665 mmHg 84%
    04:00 +22°C° 0.2 mm 1 mps 665 mmHg 86%
    05:00 +22°C° 0.1 mm 1 mps 665 mmHg 84%
    06:00 +23°C° 0.1 mm 1 mps 666 mmHg 82%
    07:00 +21°C° 0.1 mm 0 mps 666 mmHg 81%
    08:00 +25°C° 0.1 mm 1 mps 666 mmHg 73%
    09:00 +26°C° 0.1 mm 1 mps 667 mmHg 66%
    10:00 +28°C° 0.1 mm 2 mps 667 mmHg 58%
    11:00 +29°C° 0.1 mm 2 mps 667 mmHg 53%
    12:00 +30°C° 0.1 mm 3 mps 667 mmHg 47%
    13:00 +33°C° 0.1 mm 3 mps 667 mmHg 41%
    14:00 +31°C° 0.1 mm 3 mps 666 mmHg 42%
    15:00 +31°C° 0.1 mm 3 mps 666 mmHg 42%
    16:00 +31°C° 0.1 mm 3 mps 666 mmHg 42%
    17:00 +29°C° 0.5 mm 3 mps 666 mmHg 51%
    18:00 +28°C° 0.5 mm 3 mps 665 mmHg 60%
    19:00 +26°C° 0.5 mm 2 mps 665 mmHg 68%
    20:00 +25°C° 0.1 mm 2 mps 666 mmHg 72%
    21:00 +25°C° 0.1 mm 2 mps 666 mmHg 75%
    22:00 +24°C° 0.1 mm 2 mps 667 mmHg 78%
    23:00 +24°C° 0.9 mm 2 mps 666 mmHg 81%

    Tomorrow, 19 January, Thursday

    Time Temperature Precipitation Wind Pressure Humidity
    00:00 +23°C° 0.9 mm 2 mps 666 mmHg 83%
    01:00 +23°C° 0.9 mm 2 mps 666 mmHg 85%
    02:00 +23°C° 0.8 mm 2 mps 666 mmHg 85%
    03:00 +21°C° 0.8 mm 2 mps 666 mmHg 85%
    04:00 +22°C° 0.8 mm 1 mps 666 mmHg 85%
    05:00 +22°C° 0.3 mm 1 mps 666 mmHg 83%
    06:00 +23°C° 0.3 mm 1 mps 666 mmHg 81%
    07:00 +23°C° 0.3 mm 1 mps 667 mmHg 79%
    08:00 +25°C° 0.1 mm 1 mps 667 mmHg 72%
    09:00 +26°C° 0.1 mm 1 mps 667 mmHg 65%
    10:00 +28°C° 0.1 mm 1 mps 668 mmHg 58%
    11:00 +29°C° 0.1 mm 1 mps 668 mmHg 54%
    12:00 +29°C° 0.1 mm 1 mps 667 mmHg 50%
    13:00 +30°C° 0.1 mm 1 mps 667 mmHg 46%
    14:00 +31°C° 0 mm 1 mps 667 mmHg 44%
    15:00 +29°C° 0 mm 0 mps 666 mmHg 42%
    16:00 +30°C° 0 mm 0 mps 666 mmHg 40%
    17:00 +28°C° 0.9 mm 0 mps 666 mmHg 47%
    18:00 +29°C° 0.9 mm 1 mps 666 mmHg 55%
    19:00 +27°C° 0.9 mm 1 mps 666 mmHg 62%
    20:00 +27°C° 1.9 mm 2 mps 666 mmHg 67%
    21:00 +26°C° 1.9 mm 2 mps 667 mmHg 73%
    22:00 +25°C° 1.9 mm 2 mps 667 mmHg 78%
    23:00 +24°C° 0.2 mm 3 mps 667 mmHg 80%

    Day after tomorrow, 20 January, Friday

    Time Temperature Precipitation Wind Pressure Humidity
    00:00 +24°C° 0.2 mm 3 mps 667 mmHg 81%
    01:00 +22°C° 0.2 mm 3 mps 666 mmHg 82%
    02:00 +22°C° 0.3 mm 3 mps 666 mmHg 83%
    03:00 +21°C° 0.3 mm 3 mps 666 mmHg 83%
    04:00 +20°C° 0.3 mm 2 mps 665 mmHg 83%
    05:00 +21°C° 0 mm 2 mps 666 mmHg 81%
    06:00 +21°C° 0 mm 2 mps 666 mmHg 78%
    07:00 +21°C° 0 mm 2 mps 667 mmHg 76%
    08:00 +25°C° 0 mm 2 mps 667 mmHg 67%
    09:00 +27°C° 0 mm 2 mps 668 mmHg 58%
    10:00 +30°C° 0 mm 1 mps 668 mmHg 50%
    11:00 +31°C° 0.1 mm 1 mps 668 mmHg 45%
    12:00 +32°C° 0.1 mm 1 mps 668 mmHg 40%
    13:00 +34°C° 0.1 mm 1 mps 667 mmHg 35%
    14:00 +33°C° 0.2 mm 1 mps 667 mmHg 37%
    15:00 +32°C° 0.2 mm 1 mps 666 mmHg 38%
    16:00 +32°C° 0.2 mm 1 mps 665 mmHg 40%
    17:00 +31°C° 0 mm 1 mps 665 mmHg 44%
    18:00 +29°C° 0 mm 1 mps 665 mmHg 49%
    19:00 +28°C° 0 mm 2 mps 666 mmHg 54%
    20:00 +27°C° 0.3 mm 2 mps 666 mmHg 59%
    21:00 +26°C° 0.3 mm 2 mps 666 mmHg 64%
    22:00 +25°C° 0.3 mm 2 mps 666 mmHg 70%
    23:00 +24°C° 0.3 mm 3 mps 666 mmHg 72%

    21 January, Saturday

    Time Temperature Precipitation Wind Pressure Humidity
    00:00 +24°C° 0.3 mm 3 mps 666 mmHg 75%
    01:00 +22°C° 0.3 mm 3 mps 665 mmHg 78%
    02:00 +21°C° 0 mm 3 mps 665 mmHg 79%
    03:00 +21°C° 0 mm 3 mps 665 mmHg 80%
    04:00 +21°C° 0 mm 2 mps 665 mmHg 81%
    05:00 +21°C° 0 mm 3 mps 665 mmHg 78%
    06:00 +21°C° 0 mm 3 mps 666 mmHg 76%
    07:00 +21°C° 0 mm 3 mps 666 mmHg 74%
    08:00 +25°C° 0 mm 2 mps 667 mmHg 65%
    09:00 +27°C° 0 mm 2 mps 667 mmHg 55%
    10:00 +29°C° 0 mm 2 mps 668 mmHg 46%
    11:00 +31°C° 0 mm 2 mps 667 mmHg 40%
    12:00 +33°C° 0 mm 1 mps 667 mmHg 34%
    13:00 +35°C° 0 mm 1 mps 667 mmHg 28%
    14:00 +35°C° 0 mm 1 mps 666 mmHg 29%
    15:00 +34°C° 0 mm 1 mps 665 mmHg 30%
    16:00 +33°C° 0 mm 1 mps 665 mmHg 31%
    17:00 +32°C° 0 mm 1 mps 665 mmHg 35%
    18:00 +31°C° 0 mm 1 mps 665 mmHg 39%
    19:00 +30°C° 0 mm 1 mps 665 mmHg 42%
    20:00 +29°C° 0 mm 1 mps 666 mmHg 45%
    21:00 +28°C° 0 mm 2 mps 666 mmHg 47%
    22:00 +27°C° 0 mm 2 mps 666 mmHg 49%
    23:00 +26°C° 0.1 mm 2 mps 666 mmHg 54%

    22 January, Sunday

    Time Temperature Precipitation Wind Pressure Humidity
    00:00 +25°C° 0.1 mm 2 mps 666 mmHg 59%
    01:00 +24°C° 0.1 mm 3 mps 665 mmHg 64%
    02:00 +24°C° 0.2 mm 2 mps 665 mmHg 66%
    03:00 +23°C° 0.2 mm 2 mps 665 mmHg 67%
    04:00 +23°C° 0.2 mm 2 mps 665 mmHg 69%
    05:00 +23°C° 0 mm 2 mps 666 mmHg 67%
    06:00 +24°C° 0 mm 2 mps 666 mmHg 65%
    07:00 +24°C° 0 mm 2 mps 667 mmHg 63%
    08:00 +26°C° 0 mm 2 mps 667 mmHg 54%
    09:00 +29°C° 0 mm 2 mps 668 mmHg 45%
    10:00 +31°C° 0 mm 1 mps 668 mmHg 37%
    11:00 +34°C° 0 mm 2 mps 668 mmHg 33%
    12:00 +35°C° 0 mm 2 mps 667 mmHg 30%
    13:00 +36°C° 0 mm 2 mps 667 mmHg 26%
    14:00 +35°C° 0 mm 2 mps 667 mmHg 27%
    15:00 +35°C° 0 mm 2 mps 666 mmHg 27%
    16:00 +34°C° 0 mm 1 mps 666 mmHg 28%
    17:00 +32°C° 0 mm 1 mps 666 mmHg 32%
    18:00 +31°C° 0 mm 1 mps 666 mmHg 36%
    19:00 +29°C° 0 mm 1 mps 666 mmHg 41%
    20:00 +28°C° 0 mm 1 mps 666 mmHg 43%
    21:00 +28°C° 0 mm 1 mps 666 mmHg 44%
    22:00 +27°C° 0 mm 1 mps 667 mmHg 46%
    23:00 +26°C° 0.1 mm 1 mps 666 mmHg 50%

    23 January, Monday

    Time Temperature Precipitation Wind Pressure Humidity
    00:00 +25°C° 0.1 mm 2 mps 666 mmHg 54%
    01:00 +25°C° 0.1 mm 2 mps 666 mmHg 58%
    02:00 +24°C° 0.1 mm 2 mps 666 mmHg 61%
    03:00 +23°C° 0.1 mm 2 mps 666 mmHg 63%
    04:00 +23°C° 0.1 mm 2 mps 666 mmHg 66%
    05:00 +23°C° 0 mm 2 mps 666 mmHg 65%
    06:00 +24°C° 0 mm 2 mps 667 mmHg 64%
    07:00 +24°C° 0 mm 2 mps 668 mmHg 63%
    08:00 +27°C° 0 mm 2 mps 668 mmHg 54%
    09:00 +29°C° 0 mm 2 mps 668 mmHg 45%
    10:00 +32°C° 0 mm 2 mps 669 mmHg 36%
    11:00 +32°C° 0 mm 2 mps 668 mmHg 34%
    12:00 +34°C° 0 mm 2 mps 668 mmHg 32%
    13:00 +34°C° 0 mm 2 mps 667 mmHg 30%
    14:00 +34°C° 0 mm 2 mps 667 mmHg 30%
    15:00 +34°C° 0 mm 2 mps 666 mmHg 31%
    16:00 +34°C° 0 mm 2 mps 666 mmHg 32%
    17:00 +32°C° 0 mm 1 mps 666 mmHg 35%
    18:00 +30°C° 0 mm 1 mps 666 mmHg 39%
    19:00 +29°C° 0 mm 1 mps 666 mmHg 42%
    20:00 +28°C° 0.4 mm 1 mps 666 mmHg 47%
    21:00 +28°C° 0.4 mm 1 mps 667 mmHg 51%
    22:00 +27°C° 0.4 mm 1 mps 667 mmHg 55%
    23:00 +26°C° 1 mm 1 mps 667 mmHg 62%
    Show more